Weather History for KBNW - January, 2013

Change the Weather History Date:

Monday, January 28, 2013

  Actual Average Record
Temperature  
Mean Temperature 37 °F -  
Max Temperature 44 °F 28 °F 56 °F (1989)
Min Temperature 30 °F 4 °F -25 °F (1963)
Degree Days  
Heating Degree Days 28    
Moisture  
Dew Point 33 °F    
Average Humidity 97    
Maximum Humidity 98    
Minimum Humidity 95    
Precipitation  
Precipitation 0.00 in - - ()
Sea Level Pressure  
Sea Level Pressure 29.79 in    
Wind  
Wind Speed 4 mph (ESE)    
Max Wind Speed 15 mph    
Max Gust Speed -    
Averages and records for this station are not official NWS values.
T = Trace of Precipitation, MM = Missing Value Source: NWS Daily Summary

Daily Weather History Graph

Daily Weather History Graph

Search for Another Location

Airport or City:

Trip Planner

Search our weather history database for the weather conditions in past years. The results will help you decide how hot, cold, wet, or windy it might be!

Date:

Astronomy

Jan. 28, 2013 Rise Set
Actual Time 7:31 AM CST 5:25 PM CST
Civil Twilight 7:01 AM CST 5:55 PM CST
Nautical Twilight 6:28 AM CST 6:29 PM CST
Astronomical Twilight 5:55 AM CST 7:01 PM CST
Moon 7:23 PM CST (1/28) 7:55 AM CST (1/28)
Length of Visible Light 10h 53m
Length of Day
9h 53m
Full, 98% of the Moon is Illuminated
Jan 28
Full
Feb 3
Last Quarter
Feb 10
New
Feb 17
First Quarter
Feb 25
Full

Hourly Weather History & Observations

Time (CST) Temp. Windchill Dew Point Humidity Pressure Visibility Wind Dir Wind Speed Gust Speed Precip Events Conditions
12:15 AM 32.4 °F - 31.8 °F 98% 29.78 in 2.0 mi Calm Calm - N/A   Overcast
12:35 AM 32.5 °F - 32.0 °F 98% 29.79 in 3.0 mi Calm Calm - N/A   Overcast
12:55 AM 32.9 °F - 32.0 °F 96% 29.79 in 3.0 mi Calm Calm - N/A   Overcast
1:15 AM 32.9 °F - 32.0 °F 96% 29.79 in 3.0 mi Calm Calm - N/A   Overcast
1:35 AM 32.5 °F - 32.0 °F 98% 29.79 in 0.8 mi Calm Calm - N/A   Overcast
1:55 AM 32.9 °F 29.8 °F 32.0 °F 96% 29.81 in 0.2 mi WSW 3.5 mph - N/A Fog Fog
2:15 AM 33.1 °F - 32.0 °F 96% 29.82 in 0.2 mi Calm Calm - N/A Fog Fog
2:35 AM 32.9 °F 27.5 °F 32.0 °F 96% 29.82 in 0.5 mi West 5.8 mph - N/A Fog Fog
2:55 AM 32.4 °F 29.1 °F 31.8 °F 98% 29.83 in 0.2 mi West 3.5 mph - N/A Fog Fog
3:15 AM 32.2 °F 28.9 °F 31.6 °F 98% 29.84 in 0.2 mi West 3.5 mph - N/A Fog Fog
3:35 AM 32.2 °F 28.9 °F 31.6 °F 98% 29.84 in 0.5 mi West 3.5 mph - N/A Fog Fog
3:55 AM 32.4 °F 29.1 °F 31.8 °F 98% 29.84 in 0.5 mi WNW 3.5 mph - N/A Fog Fog
4:15 AM 32.4 °F 27.9 °F 31.8 °F 98% 29.85 in 0.2 mi NW 4.6 mph - N/A Fog Fog
4:35 AM 32.0 °F 26.4 °F 31.5 °F 98% 29.86 in 0.2 mi NW 5.8 mph - N/A Fog Fog
4:55 AM 32.0 °F 28.7 °F 31.1 °F 96% 29.86 in 0.2 mi NW 3.5 mph - N/A Fog Fog
5:15 AM 32.0 °F 27.5 °F 31.1 °F 96% 29.86 in 0.2 mi WNW 4.6 mph - N/A Fog Fog
5:35 AM 32.0 °F 27.5 °F 31.1 °F 96% 29.86 in 0.2 mi NNW 4.6 mph - N/A Fog Fog
5:55 AM 31.6 °F 28.3 °F 30.7 °F 96% 29.86 in 0.2 mi NW 3.5 mph - N/A Fog Light Freezing Fog
6:15 AM 31.6 °F - 30.7 °F 96% 29.87 in 0.2 mi Calm Calm - N/A Fog Light Freezing Fog
6:35 AM 31.1 °F - 30.2 °F 96% 29.88 in 0.2 mi Calm Calm - N/A Fog Light Freezing Fog
6:55 AM 31.1 °F - 30.2 °F 96% 29.88 in 0.2 mi Calm Calm - N/A Fog Light Freezing Fog
7:15 AM 31.1 °F - 30.2 °F 96% 29.88 in 0.2 mi Calm Calm - N/A Fog Light Freezing Fog
7:35 AM 30.9 °F - 30.0 °F 96% 29.88 in 0.2 mi Calm Calm - N/A Fog Light Freezing Fog
7:55 AM 31.1 °F 27.7 °F 30.2 °F 96% 29.90 in 0.2 mi SSE 3.5 mph - N/A Fog Light Freezing Fog
8:15 AM 31.1 °F 27.7 °F 30.2 °F 96% 29.91 in 0.2 mi SE 3.5 mph - N/A Fog Light Freezing Fog
8:35 AM 31.5 °F 26.8 °F 30.6 °F 96% 29.91 in 0.2 mi SE 4.6 mph - N/A Fog Light Freezing Fog
8:55 AM 31.6 °F 28.3 °F 30.7 °F 96% 29.91 in 0.2 mi SSE 3.5 mph - N/A Fog Light Freezing Fog
9:15 AM 31.5 °F - 30.6 °F 96% 29.91 in 0.2 mi Calm Calm - N/A Fog Light Freezing Fog
9:35 AM 31.6 °F - 30.7 °F 96% 29.91 in 0.2 mi Calm Calm - N/A Fog Light Freezing Fog
9:55 AM 31.6 °F - 30.7 °F 96% 29.91 in 0.2 mi Calm Calm - N/A Fog Light Freezing Fog
10:15 AM 31.8 °F - 30.9 °F 96% 29.91 in 0.2 mi Calm Calm - N/A Fog Fog
10:35 AM 32.0 °F - 31.1 °F 96% 29.90 in 0.2 mi Calm Calm - N/A Fog Fog
10:55 AM 32.0 °F - 31.3 °F 97% 29.89 in 0.2 mi Calm Calm - N/A Fog Fog
11:15 AM 32.2 °F - 31.6 °F 98% 29.88 in 0.2 mi Calm Calm - N/A Fog Fog
11:35 AM 32.7 °F 28.3 °F 32.0 °F 97% 29.89 in 0.2 mi East 4.6 mph - N/A Fog Fog
11:55 AM 32.7 °F 28.3 °F 32.0 °F 97% 29.88 in 0.2 mi East 4.6 mph - N/A Fog Fog
12:15 PM 33.6 °F 27.5 °F 32.4 °F 95% 29.85 in 0.2 mi East 6.9 mph - N/A Fog Fog
12:35 PM 34.0 °F 28.8 °F 32.9 °F 96% 29.85 in 0.2 mi ESE 5.8 mph - N/A Fog Fog
12:55 PM 34.5 °F 28.6 °F 33.4 °F 96% 29.85 in 0.2 mi ESE 6.9 mph - N/A Fog Fog
1:15 PM 34.3 °F 27.7 °F 33.3 °F 96% 29.83 in 0.2 mi ESE 8.1 mph - N/A   Overcast
1:35 PM 34.2 °F 26.2 °F 33.1 °F 96% 29.82 in 0.2 mi East 10.4 mph - N/A Snow Light Snow
1:55 PM 35.1 °F 27.9 °F 34.0 °F 96% 29.81 in 0.2 mi East 9.2 mph - N/A Fog Fog
2:15 PM 35.1 °F 27.4 °F 34.0 °F 96% 29.81 in 0.2 mi East 10.4 mph - N/A Snow Light Snow
2:35 PM 35.1 °F 26.9 °F 34.0 °F 96% 29.80 in 0.2 mi ESE 11.5 mph - N/A Snow Light Snow
2:55 PM 35.6 °F 27.1 °F 34.3 °F 95% 29.79 in 0.2 mi East 12.7 mph - N/A Snow Light Snow
3:15 PM 35.6 °F 27.1 °F 34.3 °F 95% 29.78 in 0.2 mi East 12.7 mph - N/A Snow Light Snow
3:35 PM 35.6 °F 27.5 °F 34.3 °F 95% 29.78 in 0.2 mi East 11.5 mph - N/A Fog Fog
3:55 PM 35.8 °F 27.8 °F 34.9 °F 97% 29.77 in 0.2 mi ESE 11.5 mph - N/A Fog Fog
4:15 PM 35.8 °F 27.8 °F 34.9 °F 97% 29.77 in 0.2 mi East 11.5 mph - N/A Fog Fog
4:35 PM 35.8 °F 27.3 °F 34.9 °F 97% 29.76 in 0.2 mi East 12.7 mph - N/A Fog Fog
4:55 PM 36.0 °F 27.5 °F 35.1 °F 97% 29.76 in 0.2 mi ESE 12.7 mph - N/A Fog Fog
5:15 PM 35.8 °F 27.3 °F 34.9 °F 97% 29.75 in 0.2 mi ESE 12.7 mph - N/A   Overcast
5:35 PM 35.8 °F 27.3 °F 34.9 °F 97% 29.74 in 0.2 mi ESE 12.7 mph - N/A Fog Fog
5:55 PM 36.0 °F 27.5 °F 35.1 °F 97% 29.73 in 0.2 mi East 12.7 mph - N/A Snow Light Snow
6:15 PM 35.8 °F 27.3 °F 34.9 °F 97% 29.72 in 0.2 mi ESE 12.7 mph - N/A Fog Fog
6:35 PM 36.0 °F 27.1 °F 35.1 °F 97% 29.72 in 0.2 mi ESE 13.8 mph - N/A Snow Light Snow
6:55 PM 36.0 °F 27.5 °F 35.1 °F 97% 29.71 in 0.2 mi ESE 12.7 mph - N/A Snow Light Snow
7:15 PM 36.1 °F 27.3 °F 35.2 °F 97% 29.70 in 0.2 mi ESE 13.8 mph - N/A Snow Light Snow
7:35 PM 36.1 °F 27.3 °F 35.2 °F 97% 29.69 in 0.2 mi ESE 13.8 mph - N/A Snow Light Snow
7:55 PM 36.1 °F 26.9 °F 35.2 °F 97% 29.69 in 0.2 mi ESE 15.0 mph - N/A Snow Light Snow
8:15 PM 36.5 °F 27.8 °F 35.6 °F 97% 29.67 in 0.2 mi ESE 13.8 mph - N/A Snow Light Snow
8:35 PM 36.7 °F 28.0 °F 35.8 °F 97% 29.66 in 0.2 mi ESE 13.8 mph - N/A Snow Light Snow
8:55 PM 36.9 °F 28.7 °F 36.0 °F 97% 29.64 in 0.2 mi ESE 12.7 mph - N/A Snow Light Snow
9:15 PM 37.4 °F 30.3 °F 36.5 °F 97% 29.63 in 0.2 mi ESE 10.4 mph - N/A Snow Light Snow
9:35 PM 37.9 °F 30.5 °F 37.0 °F 97% 29.62 in 0.2 mi ESE 11.5 mph - N/A Snow Light Snow
9:55 PM 38.1 °F 32.3 °F 37.2 °F 97% 29.61 in 0.2 mi SE 8.1 mph - N/A Fog Fog
10:15 PM 42.1 °F 36.1 °F 41.2 °F 97% 29.60 in 1.2 mi SSE 10.4 mph - N/A   Overcast
10:35 PM 44.1 °F 37.7 °F 43.2 °F 97% 29.59 in 2.5 mi SSE 12.7 mph - N/A   Overcast
10:55 PM 41.7 °F 35.2 °F 40.8 °F 97% 29.59 in 0.2 mi SE 11.5 mph - N/A Fog Fog
11:15 PM 41.0 °F 34.7 °F 40.1 °F 97% 29.59 in 0.2 mi SE 10.4 mph - N/A Fog Fog
11:35 PM 39.9 °F 35.8 °F 39.0 °F 97% 29.58 in 0.2 mi SE 5.8 mph - N/A Fog Fog
11:55 PM 39.2 °F 34.2 °F 38.3 °F 97% 29.57 in 0.2 mi SE 6.9 mph - N/A Fog Fog